Theta_e
349 350 350 353 353 351 352 351 350 350 349 345 342 343 345 346 347 348 350 350 350 348 348 348 344 344 337 332 332 333 335 336 335 333 331 330 332 335 348 349 343 339 349
348 350 351 350 351 350 351 350 348 348 348 348 346 346 348 348 348 349 350 350 349 350 350 348 344 340 343 337 337 334 335 337 335 330 330 329 332 338 344 346 347 345 343
348 348 350 349 350 350 351 350 346 346 348 348 349 351 348 351 352 352 350 349 350 350 351 350 349 343 343 343 344 338 337 338 338 336 332 331 334 343 348 346 348 346 346
347 347 350 348 349 350 350 349 346 348 349 348 348 351 343 343 350 352 352 351 350 350 352 351 351 351 347 344 343 346 346 344 348 341 340 340 342 344 346 348 347 348 346
345 344 349 348 348 350 350 348 345 347 350 349 346 350 349 350 350 350 351 351 351 350 350 351 351 352 351 350 348 343 343 343 344 341 340 342 342 344 345 346 347 348 347
342 344 346 351 351 351 346 343 346 348 350 348 346 345 349 351 350 350 350 351 352 351 350 350 351 353 351 351 351 350 348 350 350 344 336 339 343 345 351 351 350 345 346
345 347 350 350 351 350 344 340 346 348 349 347 344 348 349 351 351 351 351 351 351 352 349 350 352 353 351 350 350 349 349 350 346 344 341 334 341 345 348 350 351 349 347
344 347 350 350 348 344 342 349 350 350 351 350 347 349 350 351 350 351 351 350 351 351 351 350 352 353 349 350 350 349 346 350 346 343 343 339 340 343 343 347 349 345 346
345 347 348 349 349 350 351 352 352 352 352 351 349 352 352 351 351 351 351 351 351 351 352 351 351 353 342 345 345 345 345 346 347 346 344 343 337 340 339 341 348 344 345
347 346 346 346 346 350 351 351 350 351 353 351 350 352 351 351 352 351 349 346 350 351 352 352 352 351 344 340 340 344 343 342 341 342 345 345 339 338 339 338 341 347 348
350 348 347 346 346 348 350 351 352 352 352 352 351 351 353 351 351 349 348 344 351 351 352 350 348 346 344 344 344 342 341 342 342 341 345 345 344 342 337 335 341 344 342
351 348 346 347 347 347 349 349 350 349 350 348 346 349 351 347 347 345 345 344 348 351 351 349 347 345 345 344 344 345 345 345 342 342 345 344 345 344 343 341 342 345 343
349 347 346 347 346 346 346 345 349 345 345 348 347 344 346 346 344 343 342 343 346 351 350 350 345 345 346 347 348 347 345 343 342 345 347 344 345 347 344 342 341 344 345
350 347 347 345 344 344 341 339 340 341 345 347 343 339 343 343 343 347 350 349 350 349 347 343 345 346 347 346 349 349 346 345 346 348 348 348 347 346 346 342 345 344 342
349 349 344 340 340 339 338 339 340 344 345 343 340 339 342 345 346 349 350 350 350 350 348 344 342 341 346 347 346 346 348 347 348 348 348 348 348 347 347 343 341 340 340
349 346 340 335 336 336 337 342 347 347 346 344 343 342 345 347 348 349 350 349 350 351 347 347 346 347 347 347 346 346 346 348 347 349 347 347 347 345 346 343 339 340 341
348 347 344 338 342 342 343 346 348 348 349 348 348 347 348 348 348 349 351 350 350 351 351 351 351 349 348 349 349 349 348 344 347 348 348 347 348 346 345 343 339 338 338
347 347 347 347 348 348 346 346 348 349 349 349 350 351 350 349 349 348 349 350 351 349 350 351 351 352 351 351 350 347 348 346 345 348 348 348 347 347 345 344 342 339 339
345 347 348 348 349 350 348 347 347 347 349 351 349 349 349 350 350 349 347 349 350 350 350 351 350 350 351 351 351 350 346 348 348 348 348 348 348 347 346 345 344 343 341
342 344 347 348 349 350 349 348 349 348 349 349 349 348 348 349 349 350 347 348 349 348 348 348 348 348 351 352 351 351 349 349 350 349 345 347 348 349 347 346 346 345 344
342 342 345 348 348 350 350 349 350 350 349 348 348 347 348 348 348 349 349 347 348 348 347 346 346 348 349 350 351 351 349 349 349 348 347 342 342 346 347 348 348 348 346
342 342 343 345 348 350 348 348 348 347 346 345 343 344 347 348 347 347 348 348 348 349 348 347 345 348 349 349 350 345 344 347 349 348 347 346 344 343 343 343 343 346 348
342 343 343 344 347 347 347 347 347 346 347 346 344 340 340 345 347 346 346 346 347 348 350 348 346 347 347 348 349 348 342 344 341 347 347 347 344 345 341 340 344 346 347
343 343 343 344 344 344 345 345 346 348 349 349 348 347 345 347 348 347 348 347 347 348 349 349 348 346 346 346 346 348 348 347 342 342 344 345 346 346 345 344 342 338 344
343 345 344 344 344 344 345 345 347 347 348 348 349 349 350 350 350 350 350 350 349 350 349 349 348 348 348 347 347 346 347 348 346 343 347 344 345 345 345 345 344 342 345
341 344 346 345 344 344 346 346 347 348 348 350 350 351 351 352 353 354 354 353 353 352 351 349 348 347 346 347 347 346 346 345 344 344 344 344 344 345 345 345 345 345 343
Wind_Speed
24 24 22 22 24 23 22 23 22 22 24 25 25 24 23 21 18 15 14 12 11 11 10 10 8 7 10 11 11 10 9 9 7 7 10 11 13 12 12 10 12 12 13
34 27 25 25 24 23 23 23 23 23 24 24 24 20 18 17 16 14 12 11 10 10 10 9 8 5 4 6 7 7 7 8 8 9 8 10 12 12 9 7 8 10 10
35 29 26 25 24 24 22 24 23 22 21 21 21 17 16 15 13 12 11 11 9 8 10 9 8 7 5 4 3 4 6 7 8 9 9 10 12 10 9 8 7 8 9
34 31 28 26 25 24 23 23 22 20 18 18 18 16 16 14 12 12 11 10 9 7 7 9 10 8 7 6 7 7 6 6 6 8 11 12 12 10 7 6 7 6 8
34 32 29 26 26 23 22 22 21 20 17 17 17 15 12 11 11 11 11 10 9 8 7 7 7 8 8 9 9 10 10 9 9 9 8 11 10 9 9 11 9 8 8
34 31 29 27 24 23 23 22 20 18 17 16 14 13 11 11 11 11 11 11 10 9 9 8 8 7 8 8 10 10 11 12 11 11 8 11 11 10 12 12 11 10 9
32 29 26 27 24 24 23 22 20 19 17 16 15 13 12 12 12 11 11 11 11 11 10 9 8 9 9 9 9 10 10 13 13 15 12 15 15 15 15 13 12 10 10
32 29 28 28 28 25 23 21 20 19 18 16 14 13 12 12 11 11 11 12 12 12 11 11 10 10 9 10 10 10 11 12 13 16 17 17 17 18 16 15 12 12 10
30 29 29 27 24 22 21 20 20 18 17 16 14 13 12 12 11 12 13 13 13 12 12 11 12 11 10 11 12 11 11 11 10 8 16 16 21 21 17 16 15 14 13
29 29 29 28 26 25 23 22 21 19 18 16 14 13 12 12 12 12 12 13 13 13 12 12 12 13 12 11 12 12 10 10 12 11 11 15 18 26 21 16 17 16 15
25 27 28 28 27 26 25 22 20 19 17 16 15 14 13 13 13 12 12 11 12 12 13 13 14 14 12 12 12 11 11 13 14 13 12 12 15 17 20 22 20 18 18
23 30 30 29 27 26 24 22 22 20 19 18 17 17 16 15 14 13 12 12 12 13 14 15 13 12 12 12 13 11 12 14 15 14 13 12 15 15 15 21 21 20 20
31 30 32 30 28 26 25 24 22 21 20 19 18 18 17 16 15 14 14 14 13 13 15 15 14 14 13 13 13 13 12 14 15 15 13 13 15 17 17 18 21 22 22
28 32 30 30 29 28 26 24 23 23 22 21 20 20 19 19 18 18 17 16 16 16 17 17 16 13 14 14 13 12 11 12 13 15 16 17 19 19 22 19 20 22 22
27 30 32 31 30 29 28 25 24 23 23 22 22 22 23 22 21 20 19 18 20 18 18 18 19 18 16 14 13 15 15 14 14 16 18 19 16 22 24 22 22 24 24
31 32 32 32 30 29 31 29 25 24 24 22 22 24 24 24 22 21 21 21 21 20 16 20 21 20 19 18 15 10 13 15 16 16 18 17 19 21 24 24 23 25 26
37 34 33 34 32 31 32 32 29 27 26 25 24 24 25 26 25 24 20 22 21 23 22 24 22 23 24 22 21 18 14 15 19 16 17 18 23 23 24 24 24 25 25
32 34 35 34 34 33 33 32 32 30 29 27 26 27 29 27 26 26 25 23 20 19 20 22 24 26 25 26 25 22 21 21 19 19 18 22 22 27 25 26 26 27 27
38 37 36 35 36 36 35 34 34 32 30 29 27 25 24 29 29 28 29 27 22 21 22 22 22 23 25 26 27 25 25 24 25 23 21 23 25 26 30 28 29 29 28
35 37 38 37 38 37 35 35 35 35 34 29 27 24 24 27 30 31 31 30 26 25 25 24 23 20 20 23 25 27 27 28 26 27 24 21 25 28 30 31 30 31 29
35 35 38 38 39 38 38 34 31 32 33 32 30 27 24 24 29 32 34 34 32 30 28 29 28 23 20 19 14 19 20 21 22 27 26 27 24 28 27 29 32 33 33
35 38 37 37 38 40 40 42 38 37 33 34 32 31 30 28 27 27 32 36 36 35 33 29 27 27 26 22 11 3 2 9 22 28 28 34 28 29 30 31 31 33 35
29 38 40 39 40 42 43 39 35 30 28 27 32 32 34 33 32 32 33 32 34 34 37 36 32 30 24 25 26 12 1 5 2 16 31 35 37 34 32 29 31 33 32
38 39 41 42 45 45 44 42 38 29 24 27 28 30 31 31 31 32 32 33 35 36 36 39 37 36 32 25 20 30 32 20 4 3 11 21 29 34 37 35 31 32 31
33 41 45 45 47 47 46 45 39 33 34 34 29 33 32 32 33 34 35 35 38 39 40 40 39 36 37 33 33 25 23 28 25 10 9 10 18 26 29 28 34 34 30
29 31 37 40 46 46 45 45 40 39 36 30 32 32 33 34 34 34 34 34 34 35 38 41 39 36 37 38 36 36 30 15 9 11 7 10 14 23 29 29 29 37 38
Wind_Direction
163 159 151 147 145 143 139 136 132 133 133 135 137 134 133 136 140 145 139 134 129 120 119 112 100 93 99 117 129 130 125 121 113 104 99 98 101 99 95 89 92 101 111
159 160 155 152 150 145 146 144 141 137 133 136 138 137 136 139 144 149 147 144 141 131 131 131 129 124 118 122 132 136 130 125 125 120 122 124 118 119 109 100 100 104 117
157 160 157 155 151 148 151 149 146 141 140 142 138 142 140 141 144 149 155 155 154 148 144 145 146 155 167 176 187 162 155 150 144 142 137 138 139 137 121 115 115 122 122
159 161 160 158 153 153 154 154 152 148 151 149 144 147 144 145 147 148 155 160 164 162 160 155 156 162 169 185 200 205 208 189 179 171 160 157 157 164 173 149 146 145 139
161 164 161 161 157 159 161 160 160 157 161 154 152 157 159 165 170 165 164 171 174 183 184 180 177 172 178 184 197 204 207 205 198 192 181 179 177 177 175 167 164 164 159
164 167 164 163 160 165 166 166 167 166 168 165 164 167 174 183 183 181 183 187 189 195 199 199 190 190 182 189 189 199 201 207 205 201 202 211 189 178 168 172 176 175 173
165 169 167 166 172 172 172 175 178 178 179 178 173 176 182 189 190 190 197 207 207 206 208 206 212 197 190 194 192 194 199 201 209 217 219 208 202 185 180 181 183 184 191
167 170 171 175 178 179 178 180 184 184 182 184 181 185 190 192 198 203 214 222 224 221 219 209 211 218 209 198 200 200 198 202 199 214 213 205 208 198 190 182 194 199 199
171 172 175 179 177 178 180 184 187 189 190 190 190 193 198 200 207 212 220 227 230 227 223 216 215 219 222 215 207 213 208 212 225 217 217 221 208 200 199 202 199 209 203
177 178 178 181 183 185 187 191 193 194 195 194 198 203 207 209 215 219 220 222 223 223 220 213 216 220 219 222 219 214 220 230 245 233 224 214 205 215 211 214 209 211 213
184 186 186 186 188 189 188 190 194 196 197 199 202 209 211 213 215 217 218 219 220 219 221 224 218 218 218 228 232 231 224 228 241 244 238 212 216 213 221 220 216 213 215
189 194 193 193 192 192 192 193 200 199 202 205 207 208 214 216 217 217 221 219 215 221 227 227 227 235 226 225 230 233 236 237 236 236 223 230 213 211 216 219 216 218 223
194 197 199 198 198 197 198 200 205 206 209 212 214 214 213 215 213 215 220 224 227 224 227 234 233 238 248 243 242 246 243 227 227 229 238 233 224 228 227 225 219 223 228
198 203 204 202 201 202 203 207 209 211 215 217 218 216 215 215 217 219 224 228 232 235 235 237 242 241 252 255 252 243 230 218 225 232 239 243 245 242 234 232 223 226 228
201 206 207 204 205 205 207 213 214 218 220 219 220 216 217 218 220 224 229 233 236 234 238 240 245 246 248 253 241 240 234 230 234 239 246 248 248 241 233 236 230 228 227
206 207 204 205 207 208 210 213 216 221 225 223 223 223 223 223 224 230 238 240 236 236 232 237 238 242 246 245 235 231 235 230 236 246 252 245 229 228 229 234 234 232 232
210 208 206 204 206 207 211 217 221 221 227 229 230 230 230 232 231 233 240 246 250 250 243 248 254 252 253 249 245 248 248 243 240 244 247 234 230 230 228 233 234 237 238
206 209 212 206 209 211 213 219 222 225 228 232 236 239 237 237 239 235 237 244 247 236 238 243 251 257 252 250 248 249 247 248 254 248 243 232 234 229 230 234 234 235 238
209 210 211 210 212 214 216 221 225 229 233 232 232 234 234 236 238 236 237 236 234 232 234 239 247 255 256 250 248 258 253 253 255 249 246 241 237 236 232 233 234 236 239
209 210 210 212 213 217 219 225 231 236 234 225 224 222 222 228 234 239 239 239 243 241 240 239 244 254 255 262 258 256 263 262 257 246 246 235 238 240 237 240 240 238 236
208 205 208 209 214 214 216 219 220 218 218 225 229 229 226 230 233 238 240 242 246 249 251 249 250 251 257 259 251 248 255 264 254 243 248 238 245 237 240 243 246 245 239
207 209 209 213 214 212 214 213 215 220 229 234 237 237 235 235 237 240 241 245 250 251 249 252 250 248 252 251 232 197 286 269 249 247 246 240 246 243 245 247 246 248 248
205 207 214 216 214 213 214 217 221 228 232 231 232 232 232 235 237 239 242 245 252 255 251 251 249 251 248 251 239 219 166 230 246 242 244 246 247 246 246 244 246 242 243
211 213 216 218 216 218 221 222 223 224 230 239 241 239 237 236 235 236 240 246 250 253 251 251 251 246 247 247 252 242 241 251 196 288 243 249 249 248 251 246 239 239 241
213 215 218 222 224 224 225 227 225 224 231 237 244 244 243 245 247 245 246 248 251 254 257 255 250 250 248 242 246 251 259 251 247 221 261 253 249 248 251 250 240 233 236
219 218 221 221 225 227 228 230 226 229 230 232 238 241 247 251 250 253 258 257 255 252 253 255 255 255 259 257 247 246 245 241 229 218 237 242 237 249 246 245 244 239 239